Powrót do katalogu

AURORA 1

AktywnyŁącznośćPO
NORAD 2876·PAYLOAD·🇺🇸 United States

Wystrzelony Jun 29, 1967 z Vandenberg Space Force Base

Loading…

Następne Przeloty (najbliższe 24 godziny)

TLE

ŚwieżeSource: Space-Track

Epoka: Sep 14, 2026, 14:11 UTC

1 02876U 67065B   26257.59130620  .00000012  00000-0  64271-2 0  9990
2 02876  89.9742 313.2070 0070194  21.4198 338.9554  8.36560232397085

Śledź AURORA 1 w czasie rzeczywistym z AllMySat

Download on the App Store